Theta_e
309 309 309 309 309 310 310 310 310 310 310 310 310 311 311 311 311 312 312 312 313 313 313 312 312 312 312 312 312 313 313 313 313 312 311 311 310 309 309 308 307 307 307 307 307 307 307 307 307 307 307 307 307 308 308 309 310 311 312 313 314 315 316 316 316 316 316 316 316 316 316 316 316 316 316 316 316 316 317 317 317 317 317 317 317 316
309 308 308 308 309 309 310 309 310 310 310 310 310 310 310 310 310 311 311 311 311 311 312 311 311 311 311 311 311 311 312 313 314 314 314 313 313 312 311 310 309 308 307 307 307 307 307 307 307 308 308 308 308 308 308 309 310 311 312 313 313 314 314 315 315 315 315 316 316 316 316 316 316 316 317 317 317 317 317 317 318 318 318 318 317 317
308 308 308 308 308 309 309 309 309 309 309 309 309 309 309 309 309 310 310 310 310 310 310 310 310 310 310 310 310 310 310 311 312 313 313 313 313 313 313 312 312 311 310 309 308 307 307 307 307 308 308 309 309 309 310 310 311 312 313 314 315 315 315 316 316 317 317 318 318 319 319 319 319 318 318 318 318 318 317 317 317 318 318 318 318 318
308 308 308 308 308 308 308 308 308 308 308 308 308 308 308 309 308 308 308 308 308 309 309 309 309 309 309 309 308 308 309 309 310 311 311 312 312 312 312 312 312 312 311 311 310 309 308 307 307 307 307 308 309 309 310 310 311 312 313 314 315 316 317 318 319 319 320 320 320 320 320 320 320 320 320 320 320 320 319 319 318 318 318 318 318 318
308 308 308 307 308 308 308 308 307 308 307 307 307 307 307 307 307 307 307 307 307 307 308 308 308 308 307 307 307 307 307 308 308 309 309 309 310 310 310 310 311 311 311 311 311 310 310 309 308 307 307 307 308 308 309 310 310 311 312 312 313 314 315 316 317 317 318 318 319 319 319 319 319 319 319 319 319 319 319 318 318 318 317 317 317 317
307 307 307 307 307 307 307 307 307 307 306 306 306 306 306 306 306 305 305 305 305 305 306 306 307 307 307 306 306 306 306 306 307 307 307 307 308 308 308 308 308 309 309 309 310 310 310 309 309 308 307 307 307 307 307 308 309 309 310 311 311 311 312 312 313 314 314 314 315 315 316 316 316 316 316 316 316 316 316 316 315 315 314 314 314 314
308 307 307 307 307 307 307 306 306 306 306 306 305 305 305 305 304 304 303 303 303 303 303 304 304 305 306 306 306 305 305 305 305 305 306 306 306 306 306 306 306 306 307 307 308 308 308 308 308 308 307 307 306 306 306 306 307 307 308 308 309 309 310 310 310 310 311 311 311 312 312 312 312 312 313 313 313 313 312 312 312 311 311 311 310 310
308 307 307 307 306 306 306 305 305 305 305 305 305 304 304 303 303 302 302 301 301 300 300 300 301 301 303 304 304 304 304 304 304 304 304 304 304 304 305 305 305 305 305 306 306 306 306 306 306 306 306 306 306 305 305 305 306 306 306 307 307 307 307 308 308 308 308 308 309 309 309 309 309 309 310 310 310 310 309 309 309 308 308 308 307 307
307 307 306 305 304 303 303 303 302 302 302 301 301 301 301 301 300 300 299 299 298 298 297 297 297 297 298 299 300 301 302 302 303 303 303 303 303 303 303 303 303 304 304 304 304 305 305 305 305 305 305 305 304 304 304 304 305 305 305 306 306 306 306 306 306 306 306 307 307 307 307 307 308 308 308 308 308 307 307 307 307 306 306 306 306 306
306 305 304 302 301 299 299 299 298 298 297 297 296 296 296 296 296 295 294 294 295 295 295 295 294 294 294 295 296 297 297 298 299 299 300 300 301 301 301 301 301 301 302 302 302 302 303 303 303 304 304 304 304 303 303 303 303 304 304 304 305 305 305 305 305 305 305 306 306 306 306 307 307 307 307 307 307 306 306 306 306 306 306 306 306 306
304 303 300 299 297 296 296 296 295 295 294 293 293 292 292 292 292 292 291 292 292 292 292 293 293 293 293 293 293 293 294 294 295 295 295 296 297 298 298 298 298 298 299 299 299 299 299 300 300 301 301 302 302 302 302 302 302 302 303 303 303 304 304 304 305 305 305 305 305 305 306 306 306 306 306 306 306 306 306 306 306 306 305 305 306 306
301 299 297 296 295 294 294 294 294 293 293 292 291 291 291 290 290 290 290 291 291 291 292 292 292 292 292 292 292 292 292 292 293 293 293 293 293 294 295 295 295 295 296 295 295 295 295 296 296 297 297 298 298 299 299 299 300 300 300 301 302 302 303 304 304 304 304 304 305 305 305 305 305 305 305 305 305 305 305 305 305 305 305 305 305 305
298 296 295 294 293 293 293 293 292 292 291 290 290 290 290 290 290 290 290 291 291 291 292 292 292 292 292 292 292 292 292 292 292 292 292 292 292 292 293 293 293 293 293 293 293 293 293 293 293 294 294 294 294 294 295 295 295 296 296 297 298 299 301 302 303 303 304 304 304 304 304 304 304 304 304 304 305 305 305 305 304 304 304 304 304 304
295 294 293 293 293 293 292 292 291 290 290 290 290 290 290 290 290 290 290 291 291 291 292 292 292 292 292 292 292 292 292 292 292 292 292 292 292 292 292 292 292 292 293 293 293 293 293 293 293 293 292 292 292 292 292 293 292 292 293 293 294 295 295 296 298 300 301 302 302 303 303 303 303 303 303 303 304 304 304 304 304 304 304 303 303 303
294 293 293 293 292 292 292 291 291 290 290 290 290 290 290 290 290 290 290 290 291 291 292 292 292 292 292 292 291 291 291 292 292 292 292 292 292 292 292 292 292 292 292 292 293 292 292 292 292 292 292 292 292 292 292 292 292 292 292 292 292 292 292 292 293 294 295 296 297 298 299 300 300 301 301 301 301 301 301 301 301 301 300 300 299 299
293 293 292 292 292 292 291 291 291 290 290 290 290 290 290 290 289 289 289 290 290 291 291 291 291 291 291 291 291 291 291 291 291 291 292 292 292 292 292 292 292 292 292 292 292 292 292 292 292 292 292 292 292 292 292 292 292 291 291 291 292 292 292 292 292 292 292 292 292 293 293 294 295 295 296 296 296 297 297 297 296 296 296 295 295 294
292 292 292 292 292 291 291 291 291 290 291 290 290 290 290 289 289 289 289 290 290 290 290 290 290 290 290 291 291 291 291 291 291 291 291 292 292 292 292 292 292 292 292 292 292 292 292 292 292 292 292 292 292 292 292 291 291 291 291 291 291 291 291 291 292 292 292 292 292 291 291 291 292 292 292 292 292 293 293 293 293 293 293 292 292 292
292 292 292 291 291 291 291 291 291 291 291 290 290 290 290 290 290 290 290 290 289 289 289 289 289 290 290 290 290 290 290 291 291 291 291 291 292 292 292 292 291 292 292 291 291 291 291 291 291 291 291 291 291 291 291 291 291 291 291 291 291 291 291 291 291 291 291 291 291 291 291 291 291 291 291 291 291 291 291 291 291 292 291 292 292 292
291 291 291 291 291 291 291 291 291 291 291 291 290 290 290 290 290 290 290 290 289 289 289 289 289 289 289 290 290 290 290 291 291 291 291 291 291 291 291 291 291 291 291 291 291 291 291 291 291 291 291 291 291 291 291 291 291 291 291 290 290 290 290 290 290 290 290 290 291 291 291 291 291 291 291 291 291 291 291 291 291 291 292 292 292 292
291 291 291 291 291 291 291 291 291 291 290 290 290 290 290 290 290 290 290 290 290 290 290 289 289 289 289 289 289 289 290 290 291 291 290 290 291 291 291 291 291 291 291 291 291 291 290 290 290 290 290 290 290 290 290 290 290 290 290 290 290 290 290 290 290 290 290 290 290 290 290 290 291 291 291 291 291 291 291 291 291 291 292 292 292 292
290 291 291 291 292 292 291 291 291 291 291 290 290 290 290 290 290 290 290 290 290 290 290 289 289 289 289 289 289 289 289 289 290 290 290 290 290 291 291 291 291 291 291 290 290 290 290 290 290 290 290 290 290 290 290 290 290 290 290 290 290 290 290 290 290 290 290 290 290 290 290 290 290 291 291 291 291 291 291 291 291 291 291 291 291 291
291 291 291 292 292 292 292 292 291 291 291 291 291 291 291 291 291 291 291 291 291 290 290 290 290 290 289 289 289 289 289 289 289 289 290 290 290 290 291 291 290 290 290 290 290 290 290 290 290 290 290 290 290 290 290 290 290 290 290 290 289 289 290 290 290 290 290 290 290 290 290 290 290 290 290 291 291 291 291 291 291 291 291 291 291 291
291 291 292 292 292 292 292 292 291 291 291 291 291 291 292 292 292 292 292 292 292 291 291 290 290 290 290 289 289 289 289 289 288 288 289 289 290 290 290 290 290 290 290 290 290 290 290 289 289 289 289 289 290 289 289 289 289 289 289 289 289 289 289 290 290 290 290 290 290 290 290 290 290 290 290 290 290 290 290 290 290 290 290 290 290 290
291 291 291 291 291 291 291 291 291 291 291 291 292 292 292 292 292 292 292 292 292 292 291 291 291 290 290 290 289 289 289 289 288 288 289 289 289 289 289 289 289 289 289 289 289 289 289 289 289 289 289 289 289 289 289 289 289 289 289 289 289 289 289 290 290 290 290 290 290 290 290 290 290 290 290 290 290 290 290 290 290 290 290 290 290 289
291 290 290 290 290 290 290 291 291 291 291 291 292 292 292 292 292 292 292 292 292 292 291 291 291 290 289 289 289 289 289 289 289 288 289 289 289 289 289 289 289 289 289 289 289 289 289 289 289 289 289 289 289 289 289 289 289 289 289 289 289 289 289 290 290 290 290 290 290 290 290 290 290 290 290 290 290 290 290 290 290 289 289 289 289 289
290 290 290 290 290 290 290 291 291 291 292 292 292 292 292 292 292 292 292 292 292 291 291 291 290 290 290 289 289 289 289 289 289 289 288 289 289 289 289 289 289 289 288 288 288 289 289 289 289 289 289 289 289 289 289 289 289 289 289 289 289 289 290 290 290 290 290 290 290 290 290 290 290 290 290 290 289 289 289 289 289 289 289 289 289 289
289 289 289 289 289 290 290 291 291 292 292 292 292 292 291 291 292 292 291 291 291 291 291 290 290 290 290 289 289 289 289 289 289 289 289 289 289 289 289 289 289 289 289 289 289 289 289 289 289 289 289 289 289 289 289 289 289 289 289 289 289 289 290 290 290 290 290 290 290 289 289 289 289 289 289 289 289 289 289 289 289 289 289 289 289 289
288 288 288 289 289 290 290 291 292 292 292 292 292 292 291 291 291 291 291 291 291 291 290 290 290 290 290 289 289 289 289 289 289 289 289 289 290 290 290 290 290 289 289 289 289 289 289 289 289 289 289 289 289 289 289 289 289 289 289 289 289 290 290 290 290 290 290 290 289 289 289 289 289 289 289 289 289 289 289 289 289 289 289 290 290 290
288 288 288 289 289 290 290 291 292 292 292 292 292 291 291 291 291 291 291 291 291 290 290 290 290 289 289 289 289 289 289 289 289 290 289 290 290 290 290 289 289 289 289 289 289 289 289 289 289 289 289 289 289 289 289 289 289 289 289 290 290 290 290 290 290 290 290 289 289 289 289 289 289 289 289 289 289 289 289 289 289 290 290 290 290 291
288 288 289 289 289 289 290 290 291 291 292 291 291 290 290 290 290 290 290 290 290 290 290 290 289 289 289 289 289 289 289 289 290 290 289 289 289 289 289 289 289 289 289 289 289 289 289 289 289 289 289 289 289 289 289 289 289 289 289 290 290 290 290 290 290 289 289 289 289 289 289 289 289 289 289 289 289 289 289 289 290 290 290 290 291 291
289 289 288 288 288 288 289 289 290 290 291 291 290 290 290 289 289 289 289 289 289 289 289 289 289 289 288 288 288 288 288 289 289 289 289 289 289 289 289 289 289 289 289 288 288 289 289 289 289 289 289 289 289 289 289 289 289 289 289 289 289 289 289 289 289 289 289 289 289 289 289 289 289 288 288 289 289 289 289 290 290 290 290 291 291 291
288 288 288 288 287 287 288 288 288 289 289 290 290 289 289 289 289 289 288 288 288 288 288 288 288 288 288 288 288 288 288 288 289 289 288 289 289 289 289 289 289 289 289 288 288 288 288 288 289 289 288 288 288 288 289 289 289 289 289 289 289 289 289 289 289 289 289 289 289 289 288 288 288 288 288 289 289 289 290 290 290 290 291 291 291 291
287 287 287 287 287 287 287 287 287 288 288 289 289 289 289 289 289 288 288 288 288 288 288 288 288 288 288 288 288 288 288 288 288 289 288 289 289 289 288 288 288 288 288 288 288 288 288 288 288 289 289 289 288 288 289 289 289 289 289 289 289 289 289 289 288 288 288 288 288 288 288 288 288 288 289 289 289 289 290 290 290 290 291 291 291 291
286 286 286 286 286 286 286 286 287 287 288 288 288 288 288 288 288 288 288 288 288 287 288 288 288 288 288 288 288 288 288 288 289 289 288 288 288 288 288 288 288 288 288 288 288 288 288 288 289 289 289 289 289 289 289 289 288 288 288 288 288 288 288 288 288 288 288 288 288 288 288 288 288 288 289 289 289 289 290 290 290 290 291 291 291 291
287 286 286 286 286 286 286 286 287 287 287 287 287 288 288 288 288 288 288 288 288 288 288 288 288 288 288 288 288 288 288 288 288 288 288 288 288 288 288 288 288 288 288 288 288 288 288 288 289 289 289 289 289 289 289 288 288 288 288 288 288 288 288 288 288 288 288 288 288 288 288 288 288 288 289 289 289 289 290 290 290 290 291 291 291 291
289 288 287 287 287 287 287 287 287 287 287 287 287 287 287 288 288 288 288 288 288 288 288 288 288 288 288 288 288 288 288 288 288 288 288 288 288 288 288 288 288 288 288 288 288 288 288 289 289 289 289 289 289 289 289 288 288 288 288 288 288 288 288 288 288 288 288 288 288 288 288 288 288 288 289 289 289 289 290 290 290 290 291 291 291 291
291 290 290 289 289 288 288 288 288 288 288 288 288 288 288 288 288 288 288 288 288 288 288 288 288 288 288 288 288 288 288 288 288 288 288 288 288 288 288 288 288 288 288 288 288 288 289 289 289 289 289 289 289 289 289 289 288 288 288 288 288 288 287 288 288 288 287 287 288 288 288 288 288 289 289 289 289 290 290 290 290 290 290 290 290 291
291 291 291 290 290 289 289 289 289 288 288 289 289 288 288 288 288 287 287 287 287 287 287 287 288 288 288 288 288 288 288 288 288 288 288 288 288 288 288 288 288 288 288 288 288 288 288 289 289 289 289 289 289 289 289 289 289 288 288 288 288 287 287 288 288 288 288 288 288 288 288 288 289 289 289 289 290 290 290 290 290 290 290 290 290 290
290 290 290 289 289 288 287 287 287 287 287 287 287 287 287 287 287 287 287 287 287 287 287 287 287 287 287 287 287 287 287 288 288 288 288 288 288 288 288 288 288 288 288 288 288 288 288 288 288 289 289 289 289 289 289 289 289 289 288 288 288 287 288 288 288 288 288 288 288 289 289 289 289 289 290 290 290 290 290 290 290 290 290 290 290 290
288 288 288 287 287 287 286 286 286 286 286 286 286 286 286 286 286 286 287 287 287 287 287 287 287 287 287 287 287 287 287 287 287 288 288 288 288 288 288 288 288 288 288 288 288 288 288 288 288 288 289 289 289 289 289 289 289 288 288 288 288 288 288 288 288 288 289 289 289 289 289 289 290 290 290 290 290 290 290 290 290 290 290 290 290 290
287 286 286 286 286 286 286 286 285 286 286 286 286 286 286 286 286 286 286 286 287 287 287 287 287 287 287 287 287 287 287 287 287 287 288 288 288 288 288 288 288 288 288 288 288 288 288 288 288 288 288 288 288 289 289 289 289 288 288 288 288 288 288 288 289 289 289 289 289 290 290 290 290 290 290 290 290 290 290 290 290 290 290 290 290 290
286 286 286 286 286 286 285 285 285 285 285 286 286 286 286 286 286 286 286 287 287 287 287 287 287 287 287 287 287 287 287 287 287 287 288 288 288 288 288 288 288 288 288 288 288 288 288 288 288 288 288 288 288 288 289 289 289 288 288 288 288 288 288 288 289 289 289 289 289 290 290 290 290 290 290 290 290 290 290 290 290 290 290 290 290 290
286 286 285 285 285 285 285 285 285 285 285 285 286 286 286 286 286 286 286 287 287 287 287 287 287 287 287 287 287 287 287 287 287 287 287 288 288 288 288 288 288 288 288 288 288 288 288 288 288 288 288 288 288 288 288 289 289 288 288 288 288 288 288 288 289 289 289 289 289 289 289 289 289 289 290 290 290 290 290 290 289 289 289 289 289 289
285 285 285 285 285 285 285 285 285 285 285 285 285 285 286 286 286 286 286 286 287 287 287 287 287 287 287 287 287 287 287 287 287 287 287 288 288 288 288 288 288 288 288 288 288 288 288 288 288 288 288 288 288 288 288 289 289 288 288 288 288 288 288 288 288 288 289 289 289 289 289 289 289 289 289 289 289 289 289 289 289 289 289 289 289 289
285 285 285 285 285 285 285 285 285 285 285 285 285 285 285 285 286 286 286 286 287 287 287 287 287 287 287 288 288 288 288 288 288 288 288 288 288 288 288 288 288 288 288 288 288 288 288 288 288 288 288 288 288 288 288 288 288 288 288 288 288 288 288 288 288 288 288 288 288 288 289 289 289 289 289 289 289 289 289 289 289 289 289 289 289 289
284 284 284 284 284 284 284 284 284 284 284 285 285 285 285 285 285 285 286 286 287 287 287 287 287 287 287 288 288 288 288 288 288 288 288 288 288 288 288 288 288 288 288 288 288 288 288 288 288 288 288 288 288 288 288 288 288 288 288 288 288 288 288 288 288 288 288 288 288 288 288 288 288 288 289 289 289 289 289 289 289 289 289 289 289 289
284 284 284 284 283 283 283 283 284 284 284 284 284 284 285 285 285 285 286 286 287 287 287 287 287 287 288 288 288 288 288 288 288 288 288 288 288 288 288 288 288 288 288 288 288 288 288 288 288 288 288 288 288 288 288 288 288 288 288 288 288 288 288 288 288 288 288 288 288 288 288 288 288 288 288 288 288 289 289 289 289 289 289 289 289 289
284 284 283 283 283 283 283 283 283 283 283 283 284 284 284 285 285 285 286 286 287 287 287 287 287 287 288 288 288 288 288 288 288 288 288 288 288 288 288 288 288 288 287 287 287 287 288 288 288 287 287 287 287 288 288 288 288 287 288 288 288 288 288 288 288 288 288 288 288 288 288 288 288 288 288 288 289 289 289 289 289 289 289 289 289 290
283 283 283 283 283 283 283 283 283 283 283 283 284 284 284 284 285 285 286 286 287 287 287 287 287 287 288 288 288 288 288 288 288 288 288 288 287 287 287 287 287 287 287 287 287 287 287 287 287 287 287 287 287 287 287 288 287 287 287 287 287 288 288 288 288 288 288 288 288 288 288 288 288 288 288 288 288 289 289 289 289 289 289 289 289 289
283 283 283 283 283 283 283 283 283 283 283 283 284 284 284 284 285 285 285 286 286 286 286 286 286 287 287 287 287 287 287 287 287 287 287 287 287 286 286 286 286 286 286 286 286 286 287 287 287 287 287 287 287 287 287 287 287 287 287 287 287 287 287 288 288 288 288 288 288 288 288 288 288 288 288 288 288 289 289 289 289 289 289 289 289 289
283 283 283 283 283 283 283 283 283 283 283 283 283 284 284 284 284 285 285 285 285 285 285 286 286 286 286 286 287 286 286 286 286 286 286 285 285 285 285 285 285 285 285 285 285 285 286 286 287 287 287 286 286 287 287 287 287 287 287 287 287 287 287 287 288 288 288 288 288 288 288 288 288 288 288 288 288 288 288 289 289 289 289 289 289 289
Wind_Speed
0 2 2 3 3 3 4 5 5 6 7 8 8 9 9 9 9 10 9 9 10 12 14 16 17 16 16 15 14 13 13 14 16 18 21 23 25 25 25 25 26 26 26 26 26 26 26 25 25 26 26 27 28 28 29 30 31 32 32 32 33 33 33 34 35 35 35 35 34 33 32 31 31 31 30 28 27 26 25 25 25 24 24 23 22 22
1 1 2 2 2 3 4 4 5 5 6 7 8 9 9 9 10 10 10 10 10 11 12 14 15 16 16 16 15 14 12 9 8 9 11 14 16 18 20 21 22 23 24 24 24 24 24 23 22 21 21 22 23 25 26 28 29 30 31 32 32 33 33 33 33 32 31 28 26 24 23 23 23 23 23 23 23 22 22 22 22 21 20 19 18 18
1 1 2 2 2 3 4 4 4 5 6 8 9 9 10 11 11 12 12 12 12 12 12 13 14 15 15 16 16 16 15 12 9 7 6 8 9 11 12 13 16 18 20 21 22 23 23 23 22 21 20 19 18 19 20 22 23 25 26 28 28 28 27 27 26 24 22 19 16 14 12 11 11 11 12 12 12 13 14 15 16 17 17 17 16 15
2 2 2 2 2 3 4 4 5 6 7 8 9 10 11 12 14 14 15 15 15 15 15 14 15 15 16 16 17 17 16 15 13 11 9 8 8 7 7 7 8 9 12 15 18 20 21 22 23 22 21 19 17 16 16 16 16 17 19 20 21 21 21 20 19 18 16 14 12 10 9 8 8 7 6 6 5 6 6 7 8 10 11 12 13 13
3 2 1 2 2 3 4 5 6 7 8 9 10 11 12 13 15 16 16 17 17 17 18 18 18 18 19 19 19 19 18 17 16 15 14 13 10 8 7 7 8 8 8 10 12 15 17 19 21 22 22 21 20 18 16 15 14 13 13 14 14 15 16 16 16 16 16 15 14 13 12 12 11 10 9 8 8 8 9 9 9 9 9 10 10 11
3 2 1 1 3 4 5 6 7 8 9 10 11 12 13 14 15 16 16 17 18 18 19 19 19 20 20 21 21 21 20 20 20 19 18 17 15 14 14 14 14 15 15 14 14 14 15 16 18 20 22 22 22 21 20 18 17 15 13 12 11 10 10 10 10 10 11 11 11 10 10 9 9 8 7 6 6 7 7 8 8 8 8 7 8 8
2 1 1 1 3 4 5 7 8 9 10 11 12 12 13 13 14 15 16 16 17 17 18 18 18 19 19 20 20 21 21 21 21 21 20 20 19 19 19 19 19 19 19 19 19 19 18 18 18 19 20 21 22 22 22 22 21 20 18 17 15 13 12 11 11 10 10 9 8 8 7 6 5 4 4 3 2 2 2 2 3 3 3 4 4 5
2 2 2 3 3 4 5 6 7 8 9 10 11 12 12 13 14 15 15 15 16 16 16 16 16 16 16 17 18 18 19 19 20 20 20 20 20 20 20 20 20 20 20 20 20 20 20 20 20 20 20 20 20 21 21 21 21 22 22 21 20 19 18 17 17 16 16 15 14 13 13 12 11 11 10 9 8 8 8 7 7 7 7 7 7 7
3 4 4 4 4 5 5 6 6 7 8 8 9 10 11 12 13 13 14 14 14 15 15 15 14 14 13 14 14 15 16 16 17 17 18 18 18 19 19 19 19 19 19 19 18 18 18 18 19 19 19 20 19 19 19 19 19 19 20 20 20 20 19 19 19 19 19 18 18 17 17 17 16 16 15 15 14 14 13 13 12 12 11 10 10 9
4 5 5 4 4 4 4 5 5 6 7 8 8 9 10 10 11 12 12 12 12 12 13 13 13 12 12 11 11 11 12 12 13 14 15 15 16 16 16 17 17 17 17 17 17 16 16 16 16 16 17 17 17 17 17 17 16 16 16 16 16 16 16 16 16 17 17 17 18 18 18 17 17 17 16 16 15 15 14 14 13 12 11 10 9 9
5 5 4 3 3 2 3 4 4 5 7 8 9 9 9 10 10 11 11 11 11 11 11 11 11 11 11 11 11 11 10 10 10 10 11 11 12 13 14 14 15 15 15 15 15 15 15 14 14 14 14 14 14 14 14 14 14 14 13 12 12 12 12 13 14 14 14 15 15 16 16 16 16 15 15 15 14 14 13 12 12 11 10 9 9 8
4 3 2 1 1 2 2 3 4 6 7 8 8 8 9 9 9 10 10 10 10 10 10 10 10 10 10 11 11 12 11 11 10 10 10 10 10 11 12 12 13 14 14 14 14 13 13 13 13 13 13 13 13 13 12 12 12 11 10 10 9 9 9 9 10 11 11 12 12 13 13 13 13 13 13 12 12 11 11 10 10 9 8 7 6 5
3 2 1 1 1 2 3 4 5 6 7 7 7 7 7 8 8 9 9 9 9 9 9 8 9 9 9 10 10 11 11 11 11 11 11 11 11 11 11 11 11 12 12 11 11 11 10 10 10 11 11 11 11 11 11 11 11 10 8 7 6 5 4 4 5 5 6 6 7 8 9 9 9 9 9 9 8 8 7 7 6 6 5 4 3 1
3 2 1 1 1 2 3 4 4 4 4 4 5 5 6 7 7 7 7 7 7 7 7 7 6 7 7 8 8 9 9 9 9 9 9 10 10 10 9 9 9 9 8 8 8 8 8 9 9 9 9 9 8 8 8 7 7 7 6 5 4 3 2 1 1 1 1 1 1 1 2 2 3 3 3 3 3 2 2 1 1 1 1 2 3 5
3 2 1 0 1 2 2 2 2 2 2 3 4 5 5 6 6 6 6 6 6 6 6 5 5 5 6 6 7 7 6 6 5 5 6 6 7 8 7 6 6 6 5 6 6 7 7 7 7 7 6 6 6 6 5 5 5 4 4 4 4 3 2 1 1 1 2 3 4 4 4 4 4 4 4 4 4 4 5 5 6 6 7 7 8 9
4 3 1 0 0 1 1 1 1 1 2 3 4 4 5 5 5 5 4 4 4 4 4 4 4 4 4 5 6 6 5 4 3 3 3 4 5 5 5 4 3 3 3 3 4 4 4 4 4 3 3 3 3 3 3 3 3 3 3 4 4 4 4 3 3 2 2 3 3 4 5 6 6 7 7 8 8 8 9 9 9 9 10 10 11 11
4 3 2 1 1 1 0 1 1 2 2 3 3 4 4 4 4 3 3 3 3 3 2 1 2 2 3 4 5 5 4 3 3 2 2 3 4 4 3 2 1 1 1 1 2 2 2 2 2 2 2 2 2 3 3 4 4 5 5 6 6 6 6 6 5 5 5 4 4 4 4 5 5 6 7 7 8 8 9 9 9 10 10 10 10 10
5 4 3 3 2 2 1 1 1 1 2 2 3 3 3 3 3 3 3 3 2 2 1 1 1 1 2 3 3 4 4 3 2 2 1 2 2 3 2 1 0 0 1 1 1 2 1 1 1 2 2 3 3 4 5 5 6 6 7 7 7 7 7 7 7 7 7 6 6 6 5 5 5 5 5 6 6 6 7 7 8 8 8 8 8 8
5 5 5 4 3 3 2 1 1 0 1 1 2 2 2 3 3 3 3 3 3 2 2 1 1 2 2 2 2 3 4 3 2 1 1 1 1 1 1 1 0 1 1 1 2 2 2 3 3 3 3 4 4 5 6 6 7 7 8 8 8 8 8 8 8 8 8 8 8 8 7 7 7 7 7 6 6 6 6 6 6 6 6 6 6 6
6 6 6 5 4 3 3 2 1 1 1 1 2 2 2 3 3 4 4 4 4 4 4 3 3 3 3 3 3 3 4 3 2 2 3 2 1 1 1 0 0 1 2 2 3 4 4 4 4 5 5 5 5 6 6 7 7 8 8 8 9 9 9 9 9 9 9 9 9 9 9 8 8 8 8 8 7 7 7 7 7 6 6 6 6 6
6 7 6 5 4 4 3 2 2 1 1 1 2 2 2 3 4 4 5 5 5 5 5 4 4 4 5 4 3 3 4 2 2 3 4 4 3 2 2 2 2 2 3 3 4 5 5 6 6 7 7 7 7 7 7 8 8 8 8 8 9 9 9 9 9 9 9 9 9 9 9 9 9 9 8 8 8 8 8 8 8 7 7 7 7 6
7 7 6 5 4 4 3 3 2 2 1 1 1 1 2 3 4 5 5 6 6 6 6 5 5 6 5 4 4 4 4 3 3 4 5 4 4 3 4 4 4 4 4 5 6 6 7 7 8 8 9 9 9 9 9 9 9 9 9 9 9 9 9 9 10 10 10 10 10 10 10 9 9 9 9 9 9 9 9 9 8 8 8 7 6 6
7 7 6 5 4 4 3 3 3 3 2 2 2 2 3 3 4 5 6 6 7 7 7 7 7 6 6 5 5 5 5 5 5 5 5 5 5 5 6 6 6 6 6 6 7 7 8 9 9 10 10 10 10 10 10 10 10 10 9 9 9 10 10 10 10 10 10 10 10 10 10 10 10 10 10 10 10 10 10 9 9 8 8 7 6 4
7 7 6 6 5 4 4 4 4 3 3 3 2 2 3 3 4 4 5 6 7 7 7 7 7 7 6 6 6 6 6 6 6 7 6 6 6 6 7 7 7 7 8 8 8 9 9 9 10 11 11 11 11 11 11 11 11 11 11 11 10 10 10 10 10 10 10 10 10 11 11 11 11 11 11 11 11 11 10 10 9 8 7 6 5 3
7 7 7 6 6 6 6 5 5 4 4 3 3 3 3 3 4 5 5 6 7 7 8 8 7 6 6 7 7 6 7 7 7 7 8 8 8 8 8 7 7 8 9 10 10 10 10 10 11 11 12 12 12 12 12 12 12 12 12 12 12 11 11 11 11 11 11 11 11 11 12 12 12 12 12 12 11 11 10 9 8 7 6 5 3 3
7 7 7 7 7 7 7 6 6 5 5 4 4 3 3 3 4 4 5 5 6 7 8 8 8 7 7 7 7 7 8 8 8 8 8 9 9 9 8 8 8 8 9 10 11 11 11 11 12 12 12 13 13 13 13 13 13 13 13 13 13 12 12 12 12 12 12 12 12 12 13 13 13 12 12 12 11 10 9 8 7 6 4 4 3 2
7 7 8 8 8 8 7 7 6 6 6 5 5 4 3 3 3 3 4 4 5 6 7 8 8 9 9 8 7 8 8 9 9 9 9 9 10 9 9 9 8 8 9 9 10 11 11 12 12 13 13 13 14 14 14 14 13 13 13 13 13 13 13 13 13 13 13 13 13 13 13 13 13 12 12 11 10 9 8 7 6 4 3 3 2 2
7 8 8 8 8 8 8 7 7 7 7 6 6 5 4 3 3 4 4 5 6 6 7 8 9 9 9 9 9 9 9 9 9 9 10 10 10 10 10 10 9 9 9 9 10 11 12 12 12 13 12 13 13 13 13 13 13 13 13 13 14 14 14 14 14 14 13 13 13 13 13 13 12 12 11 10 9 8 7 6 5 4 3 3 3 3
8 8 8 8 8 8 8 8 8 7 7 7 6 5 5 4 4 5 5 6 6 7 8 8 9 10 10 10 11 10 10 9 9 10 11 11 11 12 12 11 11 10 10 10 11 12 12 11 11 11 11 11 11 11 12 12 12 12 13 13 14 14 14 14 14 14 14 14 14 13 13 13 12 11 10 9 8 7 6 5 4 4 4 4 4 4
8 8 8 8 8 8 8 7 7 7 7 7 6 6 5 5 5 5 6 6 7 7 8 9 9 10 10 11 11 11 10 10 10 11 11 11 12 13 14 13 12 12 11 11 11 12 12 11 10 9 9 9 10 11 11 12 12 13 13 14 14 15 15 15 14 14 14 14 14 13 13 12 11 10 9 8 7 6 6 6 5 5 5 5 5 6
7 7 7 8 8 8 8 7 7 7 7 7 7 6 6 6 6 6 6 7 7 7 8 8 9 9 10 10 10 11 11 11 12 12 12 12 13 14 15 14 14 13 12 11 11 11 10 10 9 9 9 9 10 11 12 13 13 14 14 15 15 15 15 15 15 14 14 14 13 13 12 11 11 10 9 8 7 7 7 6 6 6 6 7 7 8
7 8 8 8 8 8 8 7 7 7 7 7 7 7 7 6 6 7 7 7 7 7 8 8 9 9 10 10 10 11 12 12 13 13 12 12 13 15 15 15 15 14 14 13 12 10 8 10 11 11 10 10 11 12 14 14 15 15 15 15 15 15 15 15 14 14 13 13 13 12 11 11 10 9 9 8 8 8 8 8 8 8 8 9 10 10
7 8 8 8 8 8 8 8 8 8 8 8 8 8 7 7 7 7 7 8 8 8 8 8 9 9 10 11 11 12 12 13 13 13 13 12 13 14 15 15 15 15 15 14 13 12 11 12 13 12 10 10 10 11 13 14 14 14 15 14 14 15 15 14 14 13 12 12 12 11 11 10 10 9 9 9 9 9 9 9 10 10 10 11 11 12
7 7 7 7 8 8 8 8 8 8 8 8 8 8 8 8 8 8 8 8 8 9 9 9 9 10 11 12 13 13 13 14 14 15 14 13 13 14 15 16 16 16 15 15 14 14 14 14 14 13 12 10 9 10 11 11 12 13 14 13 13 13 14 13 13 12 12 11 11 11 10 10 10 10 9 10 10 10 11 11 12 12 12 13 13 13
9 8 8 7 7 7 7 8 8 8 9 9 9 9 9 9 9 9 9 9 10 10 10 10 11 11 12 12 13 14 14 15 16 16 15 14 14 15 15 16 16 16 15 15 15 15 15 14 14 14 14 12 10 9 9 10 11 12 13 13 13 13 12 12 12 11 11 11 11 11 10 10 10 10 10 11 11 12 12 13 13 13 14 14 14 14
10 10 9 8 8 8 8 8 8 9 9 10 10 10 9 10 10 10 10 11 11 11 11 12 12 13 13 13 14 14 15 16 17 17 16 16 15 15 15 16 16 16 16 16 16 16 15 15 15 15 15 14 13 11 10 9 10 11 12 12 12 12 12 11 11 11 11 11 11 11 11 11 11 11 12 12 12 13 13 13 14 14 15 15 15 15
11 10 10 10 9 9 9 9 9 10 10 10 10 10 10 10 11 11 11 12 12 12 13 13 13 13 14 14 14 15 15 16 16 17 17 17 16 16 15 16 17 17 16 16 16 16 16 16 16 16 15 15 14 13 12 10 9 9 9 10 11 10 10 11 11 11 11 11 11 11 11 12 12 12 13 13 13 13 14 14 14 15 15 15 16 16
10 9 9 10 10 10 10 11 11 11 11 11 11 11 11 11 11 12 12 12 13 13 13 14 14 14 14 14 14 15 15 15 16 17 17 17 17 17 16 17 17 18 17 17 16 17 17 17 17 17 16 15 15 14 13 11 10 8 7 8 9 9 9 10 10 10 10 10 11 12 12 12 12 13 13 13 14 14 14 14 15 15 15 15 15 16
7 7 8 8 9 10 11 11 12 12 12 12 12 11 12 12 12 13 13 13 13 13 14 14 14 14 14 14 14 15 15 15 16 16 17 17 17 17 17 17 17 18 18 18 17 17 17 17 17 18 18 17 16 14 13 12 11 9 7 7 8 9 9 10 10 10 10 10 11 11 12 12 13 13 13 13 14 13 13 14 14 15 15 15 15 15
7 7 8 8 9 10 11 12 13 13 13 13 13 13 13 13 13 13 13 14 14 14 14 14 14 15 15 15 15 15 15 16 16 16 17 17 17 17 17 17 17 18 18 18 18 18 17 17 17 17 18 17 17 16 14 13 11 10 8 5 5 6 8 9 9 9 9 10 11 11 12 12 13 13 13 13 14 13 13 13 14 14 15 15 15 15
8 9 9 10 10 11 13 13 14 14 14 14 14 14 14 14 14 14 14 14 14 15 15 15 15 15 16 16 16 16 16 17 17 17 17 17 17 17 17 17 17 18 18 18 18 18 18 18 17 17 18 18 17 17 15 14 13 11 9 6 5 5 6 7 8 8 9 10 10 11 12 12 13 13 13 13 13 14 14 14 14 15 15 16 17 17
9 9 10 11 12 13 14 14 15 15 15 15 15 15 15 15 14 14 14 14 14 14 15 15 15 15 15 16 16 17 17 17 17 17 17 17 17 16 16 16 17 17 17 18 18 18 18 18 18 18 18 18 18 17 16 15 13 12 10 8 6 7 7 7 8 8 9 9 10 11 12 12 13 13 13 13 13 14 14 15 15 15 16 17 18 18
9 10 11 12 13 13 14 15 15 16 16 16 16 16 15 15 15 14 14 14 14 14 14 14 14 14 15 15 16 16 17 18 18 17 17 17 16 16 16 16 16 17 17 17 17 17 18 18 17 17 17 18 18 17 17 15 14 12 10 9 8 7 7 7 7 8 8 9 9 11 12 13 13 14 14 14 14 14 15 15 16 16 17 17 18 19
10 11 12 13 13 14 15 15 16 16 16 16 16 16 16 15 15 15 14 14 14 15 14 14 14 14 15 15 15 16 16 16 17 17 17 17 16 16 16 16 16 17 17 17 17 17 17 17 17 16 17 17 17 17 16 16 14 12 10 9 9 8 8 8 8 8 8 9 10 11 12 13 14 15 15 15 15 16 16 16 17 17 17 18 19 20
11 12 13 14 14 15 15 16 16 17 17 17 17 16 16 16 16 15 15 14 14 15 15 14 14 14 14 15 15 15 15 15 15 15 16 16 16 16 16 16 16 16 17 17 17 17 17 16 16 16 17 16 16 16 15 15 14 13 11 10 9 9 9 10 10 10 10 10 10 11 13 14 15 16 16 16 17 17 17 17 17 17 18 18 19 19
12 12 13 13 14 14 15 15 16 17 17 17 17 17 17 16 16 16 15 14 14 14 14 14 14 14 14 14 15 15 15 15 14 14 15 15 16 16 16 16 16 16 16 16 17 17 17 16 16 16 16 16 15 14 13 13 13 12 11 10 10 9 9 9 9 10 11 11 11 12 13 15 16 16 17 18 18 18 18 18 18 18 18 18 19 19
13 13 14 14 14 15 15 16 16 16 16 17 17 17 17 16 16 16 15 14 14 14 14 14 13 13 13 13 14 14 14 14 14 14 14 15 15 15 16 16 16 16 16 16 16 17 17 17 16 16 15 15 14 13 12 11 11 11 10 10 9 8 8 7 8 9 10 11 12 13 14 15 16 17 18 19 19 19 19 18 18 18 18 18 19 19
14 15 15 15 15 15 16 16 16 16 16 16 16 16 16 16 15 14 14 14 13 13 13 13 12 12 12 13 13 14 14 14 14 14 14 14 14 15 15 15 15 15 16 16 16 17 17 16 15 15 14 14 14 12 11 9 9 9 9 9 9 8 7 7 7 8 9 10 11 13 14 15 16 17 19 20 20 20 20 19 18 18 18 19 19 20
15 15 16 16 16 16 16 16 16 16 15 15 15 14 14 14 14 13 13 13 13 12 12 12 12 12 12 12 13 13 13 13 14 13 13 12 13 13 14 14 14 14 14 14 15 15 15 15 14 13 12 11 11 11 10 8 7 7 7 8 8 8 8 8 8 8 9 10 11 13 14 15 16 17 19 20 22 22 21 21 20 20 19 20 20 21
16 16 16 16 16 16 15 15 15 15 14 14 13 12 12 12 13 13 12 12 12 12 12 12 12 11 11 12 12 12 12 12 12 12 11 11 11 12 12 13 13 13 13 13 13 13 12 11 10 9 9 8 9 9 9 8 8 7 7 7 8 9 10 10 10 10 10 11 12 13 14 14 15 17 18 20 22 23 23 23 23 22 21 21 21 21
16 16 16 16 16 15 15 14 14 13 12 12 11 11 11 11 12 12 12 12 12 12 12 12 12 11 11 11 11 11 11 11 11 10 8 9 10 11 11 11 12 12 12 12 12 11 11 10 9 7 5 5 6 7 8 9 9 9 9 9 9 10 11 11 11 11 12 13 14 14 15 15 16 18 19 21 23 24 25 26 25 24 23 22 22 23
Wind_Direction
326 42 54 54 68 82 80 74 79 85 84 79 73 69 67 67 66 65 65 69 76 84 90 92 92 88 83 77 70 60 47 33 26 26 30 35 42 50 59 67 73 78 82 86 89 91 94 98 102 105 108 110 112 114 116 119 122 125 127 130 134 137 140 142 143 145 145 144 144 144 143 144 144 145 147 148 150 151 152 153 154 155 155 155 155 156
229 76 82 77 77 78 77 76 76 78 79 76 71 67 64 64 63 61 58 56 57 63 71 78 82 83 81 79 76 73 68 56 33 14 12 16 20 24 29 36 43 50 58 64 70 75 79 82 86 90 97 103 108 111 114 118 121 123 126 127 129 130 131 133 134 135 136 136 136 136 137 138 139 141 142 144 146 148 150 152 155 158 160 162 163 163
191 136 106 93 81 72 69 69 66 65 67 69 69 67 66 66 66 63 61 60 59 58 60 64 69 72 74 74 73 72 71 69 62 47 27 17 8 1 360 6 16 25 34 42 51 59 66 70 74 77 82 88 93 99 105 111 116 120 124 126 128 129 129 129 130 131 132 132 133 134 137 139 139 139 140 142 144 146 149 152 156 160 165 170 174 176
184 151 115 90 78 69 59 61 63 63 65 68 70 69 68 69 68 66 64 64 65 65 65 66 68 69 70 71 72 71 70 69 67 63 56 46 30 11 359 3 10 17 22 30 37 45 53 59 63 67 70 73 77 82 88 94 102 109 116 121 126 129 132 133 136 139 143 147 153 161 170 176 181 185 189 196 202 204 201 190 182 179 180 184 189 194
182 161 116 87 78 72 62 64 67 68 69 70 72 71 71 71 70 69 67 67 66 66 67 67 68 69 69 70 70 69 69 68 68 67 66 62 54 45 48 62 69 68 62 54 49 47 49 53 56 59 60 61 63 66 69 74 80 88 97 106 114 121 128 132 138 144 150 155 161 166 172 177 183 190 200 210 220 227 229 227 222 216 211 207 207 209
182 167 118 88 79 76 73 74 75 74 74 72 71 70 70 70 70 69 67 65 63 63 63 64 65 67 68 68 68 67 67 67 67 68 69 69 68 69 73 78 82 85 86 84 80 74 68 63 61 60 59 58 57 57 58 59 61 64 70 77 85 93 100 108 116 123 131 137 144 149 155 160 167 176 185 197 210 220 226 226 224 220 214 209 205 202
195 180 138 98 83 79 81 82 81 78 75 71 68 66 65 65 64 62 61 59 58 57 57 58 60 61 63 65 66 66 65 65 65 66 68 69 71 73 74 76 78 81 83 85 85 85 83 81 78 73 69 64 60 58 56 55 55 55 56 58 60 61 63 66 69 72 76 81 86 90 95 100 106 111 118 128 145 167 188 195 193 184 175 166 159 154
190 164 135 113 97 89 87 85 82 79 75 69 64 61 59 58 56 54 53 51 51 50 49 49 50 53 56 59 61 63 63 63 63 63 64 66 67 68 69 70 72 73 75 77 79 80 81 82 83 83 81 76 71 65 60 57 56 55 54 54 54 54 55 56 57 58 60 62 64 66 68 69 70 72 73 75 77 79 81 85 88 91 94 97 99 102
165 144 132 120 105 95 89 83 81 77 71 64 57 53 51 50 49 47 45 43 41 41 40 38 37 39 44 49 54 58 59 58 58 58 58 58 59 61 62 63 64 65 66 67 67 69 71 74 76 79 81 81 79 74 70 66 63 60 58 56 54 54 54 54 55 56 57 59 61 64 66 67 67 68 69 70 71 73 74 76 78 80 82 84 86 87
151 140 132 123 111 96 84 76 72 67 61 54 47 42 39 38 37 35 33 32 32 33 32 30 28 26 28 33 41 47 52 53 53 52 51 50 49 50 51 52 53 53 53 53 53 53 55 59 63 67 71 74 75 76 75 73 71 69 65 62 58 56 54 53 53 54 54 56 57 60 62 64 66 66 67 68 69 70 71 72 74 75 77 78 79 80
150 145 139 128 113 93 73 62 55 50 46 40 34 30 27 28 27 24 20 21 24 26 27 26 25 22 20 20 24 30 35 39 42 43 43 42 40 39 38 38 38 38 37 36 35 34 35 38 42 46 49 52 56 59 62 65 67 67 67 66 63 60 57 54 53 52 52 52 54 56 58 61 63 65 66 67 68 69 70 71 72 72 73 74 76 78
160 160 161 144 96 61 47 43 40 37 34 29 24 21 22 22 23 21 18 19 22 24 25 25 24 23 22 19 19 21 22 25 27 27 28 28 28 29 28 27 26 25 24 22 20 20 22 23 24 25 26 26 27 29 32 36 41 46 52 57 61 62 61 59 56 52 50 49 49 50 53 55 58 61 63 65 67 68 70 71 73 73 74 75 78 82
197 202 214 240 20 33 37 38 37 36 32 26 21 21 23 22 23 22 18 20 22 25 25 26 26 25 23 22 21 20 19 20 21 20 20 22 23 26 29 30 29 26 24 23 22 25 30 34 37 36 31 28 24 20 18 16 16 18 21 27 34 45 56 65 66 63 57 51 47 46 46 49 52 55 58 61 63 65 68 70 73 74 75 74 74 66
235 238 247 308 23 34 37 43 46 43 35 26 23 23 25 25 26 25 22 22 24 26 28 25 25 26 24 25 23 22 21 21 21 20 21 24 27 30 36 42 45 43 41 47 52 54 56 64 68 67 64 61 59 55 47 44 36 26 20 19 16 15 26 46 113 142 149 140 117 85 65 59 58 60 62 64 64 63 59 56 46 13 319 295 283 275
251 246 247 342 31 35 41 48 53 50 39 28 25 24 26 29 29 28 25 24 25 28 29 24 20 20 24 27 26 24 23 25 25 26 28 33 35 37 42 54 59 59 60 71 78 80 82 87 88 84 81 77 73 70 67 63 56 46 35 23 15 11 7 356 311 230 217 216 217 218 217 216 215 215 216 221 226 233 240 247 252 256 259 262 263 263
250 242 232 245 1 20 22 27 31 33 26 24 26 29 30 30 28 27 28 27 28 30 30 21 15 19 26 25 24 25 26 28 29 28 36 52 50 45 48 60 68 67 66 75 82 87 92 96 93 85 77 65 51 35 23 15 7 0 354 351 349 346 342 335 324 306 279 256 242 235 231 229 227 227 228 229 231 234 237 240 244 246 249 250 252 252
244 233 222 222 235 255 299 330 350 4 13 20 26 30 30 27 23 22 26 29 34 37 34 352 345 17 43 37 29 22 18 23 28 30 41 74 70 59 58 67 75 61 51 58 66 72 78 83 75 53 28 9 355 343 335 331 330 328 329 329 330 330 328 326 323 318 311 301 288 274 260 250 243 239 237 237 238 240 241 243 245 246 247 248 250 250
238 228 219 217 220 227 232 255 321 353 5 13 16 17 16 13 11 11 14 21 29 37 38 311 288 312 41 74 52 20 8 9 19 28 37 81 77 67 65 80 114 282 344 16 24 25 22 20 4 350 340 333 328 323 319 317 317 318 319 320 322 322 323 322 321 319 316 312 307 301 295 287 278 270 263 258 254 253 253 252 252 253 253 254 255 256
234 225 218 215 214 215 213 209 221 326 351 352 350 352 356 356 354 356 358 2 7 12 16 9 322 317 339 52 42 14 6 1 1 351 301 1 49 50 47 77 159 233 284 324 342 347 342 336 331 327 323 320 316 313 311 310 311 312 313 315 316 316 317 317 317 315 313 311 308 305 302 300 297 293 290 287 283 279 277 274 272 271 270 270 270 271
229 223 217 215 214 212 206 200 197 228 303 332 339 344 348 344 343 343 343 345 349 355 1 5 356 344 346 2 11 8 2 357 339 305 298 309 327 352 0 1 269 272 288 307 324 332 330 327 323 322 320 316 314 312 310 309 309 309 310 311 311 312 312 312 312 311 310 308 306 303 302 301 300 300 299 299 298 298 297 296 295 295 293 293 292 291
223 222 219 219 218 214 207 205 213 253 299 325 335 340 337 336 334 333 332 335 340 344 349 352 349 344 345 347 352 352 347 341 305 287 298 305 311 317 325 322 310 299 297 310 319 323 323 322 320 318 318 317 315 313 312 310 309 308 308 307 308 308 307 307 307 306 305 304 303 302 302 302 303 304 305 306 307 307 308 308 308 307 307 306 306 304
222 223 222 223 223 221 218 224 238 261 278 300 316 323 324 326 325 325 326 330 333 336 338 339 340 341 342 341 338 334 332 321 294 293 306 301 300 308 315 319 317 308 301 309 315 319 318 318 317 316 317 317 316 315 313 311 309 308 306 306 305 304 304 303 303 302 301 301 300 301 302 303 304 306 307 309 310 311 312 312 313 313 313 313 313 314
221 225 226 229 231 230 233 238 243 250 259 270 286 300 308 315 317 318 321 325 328 330 331 333 337 340 343 343 338 333 327 318 311 310 312 296 291 301 312 317 316 311 305 306 310 314 314 315 314 314 315 315 315 314 313 311 310 309 307 306 304 303 302 301 300 300 299 299 300 301 302 304 305 307 308 309 311 312 313 314 315 315 317 319 321 322
222 226 229 232 233 233 234 236 240 245 250 258 267 278 292 306 313 317 322 325 327 329 331 333 337 340 341 339 334 327 321 316 314 313 312 303 299 302 309 313 312 308 306 307 309 310 311 311 311 312 313 313 313 313 312 311 310 309 308 307 305 303 302 301 301 300 301 301 302 303 304 305 306 307 309 310 311 313 314 315 316 318 320 324 328 331
226 229 231 233 234 235 236 238 241 246 253 259 267 279 294 307 316 322 325 327 330 331 331 333 334 335 333 330 324 319 316 314 313 311 310 308 306 307 310 312 310 307 305 307 309 311 311 310 310 311 312 311 311 310 310 309 308 308 307 306 304 303 302 301 301 302 302 303 303 304 305 305 306 307 308 310 311 313 314 315 317 318 322 326 331 334
229 231 233 235 237 240 241 244 249 254 259 264 270 278 290 303 315 320 323 326 328 329 328 326 325 325 324 323 319 315 314 314 313 311 310 310 309 309 312 313 313 310 307 307 309 311 311 310 310 310 310 309 309 308 308 307 306 306 305 304 303 302 301 301 302 302 303 304 304 304 304 304 305 306 307 308 309 310 311 312 314 316 320 322 324 325
232 234 236 239 242 244 246 249 253 258 263 268 273 280 289 300 311 316 316 317 320 322 322 319 319 319 321 322 320 317 315 316 315 314 314 313 311 310 313 315 315 313 310 307 307 308 308 308 308 307 307 307 306 306 305 305 304 303 302 301 301 301 301 301 302 302 303 303 303 303 303 303 303 303 304 305 305 306 306 306 307 309 311 311 312 311
239 240 241 243 246 248 249 251 253 257 262 268 272 278 284 295 307 311 308 308 313 316 317 316 316 317 318 319 318 317 317 317 317 317 318 317 314 312 314 316 316 314 311 308 306 306 305 305 305 305 306 305 305 304 304 303 302 301 300 300 300 300 301 301 301 302 302 302 302 301 300 300 300 300 300 300 300 299 298 297 296 296 294 294 296 301
247 248 248 249 250 252 253 254 255 258 262 267 272 276 281 291 301 305 304 305 310 314 313 312 313 314 314 315 316 317 317 318 318 319 321 319 315 313 315 316 316 315 313 311 309 308 306 305 305 306 307 306 305 303 301 300 300 300 300 299 299 299 299 300 300 300 300 300 299 298 297 296 296 295 294 293 292 290 288 285 283 281 282 286 291 296
249 252 254 255 255 256 257 258 260 262 265 269 273 278 282 288 294 297 299 302 307 310 311 309 309 309 311 314 316 317 316 316 317 318 320 319 315 313 315 315 315 316 316 317 317 316 312 309 309 311 313 311 307 303 300 298 298 298 298 297 297 297 297 298 298 298 297 296 295 294 292 291 290 289 287 285 283 280 278 277 276 277 281 286 290 293
257 260 262 262 263 264 265 266 267 268 271 274 278 282 286 289 293 295 297 300 304 306 308 308 307 307 309 313 315 314 311 313 314 316 318 318 314 312 313 315 316 317 318 321 324 324 318 312 311 314 315 311 306 301 298 297 297 296 296 296 295 295 295 295 295 294 293 292 290 288 287 285 283 281 278 276 274 273 273 274 276 279 284 288 292 293
274 274 274 272 272 273 274 274 274 275 276 279 282 284 288 291 293 296 298 299 301 304 305 306 306 307 307 309 310 310 308 310 312 314 317 318 314 312 313 314 315 316 318 319 321 321 317 308 306 308 309 306 301 298 297 297 297 297 296 296 295 294 294 294 293 291 289 287 285 282 280 278 275 273 270 269 268 270 273 276 279 283 286 289 291 293
291 286 283 280 280 280 280 281 281 280 281 282 285 287 290 292 294 297 299 301 302 304 305 306 308 309 309 310 310 309 310 310 312 313 316 317 315 312 312 314 314 315 316 317 316 314 310 306 305 305 304 301 297 295 295 296 297 297 297 296 295 294 294 293 291 289 286 283 279 276 273 271 268 267 266 266 268 271 274 278 282 285 287 289 290 291
310 305 298 292 289 288 287 286 285 285 285 286 288 291 294 296 299 301 302 304 305 306 308 309 310 311 312 313 313 312 312 312 313 314 315 317 315 313 312 313 313 313 314 315 315 313 310 309 308 308 307 304 300 298 297 299 299 298 297 296 294 292 291 290 289 286 282 278 275 271 267 265 264 263 264 266 269 273 276 280 283 285 287 288 289 290
312 314 311 307 302 299 296 294 292 291 291 290 291 294 297 300 303 306 307 307 308 308 309 310 311 312 312 313 313 313 313 312 312 313 314 315 314 313 313 312 311 312 313 314 313 313 312 311 311 310 309 307 306 305 304 304 304 301 298 295 292 288 286 284 283 280 277 274 270 267 264 262 261 262 264 266 270 273 277 280 283 285 288 289 290 290
295 303 306 307 306 304 301 298 296 294 294 293 294 296 299 303 305 307 308 308 309 309 309 309 309 310 311 312 312 311 310 310 309 310 311 312 313 313 312 311 310 310 312 312 311 311 311 311 311 310 309 309 308 308 310 311 309 304 298 293 289 285 282 279 276 273 270 269 267 264 262 261 261 262 264 267 269 273 276 279 282 285 287 289 290 291
272 283 291 295 297 298 296 294 291 290 290 290 292 294 298 302 305 307 308 308 308 308 308 308 308 309 309 310 310 309 308 307 306 306 307 309 310 312 311 309 309 309 310 310 309 309 310 310 309 308 309 310 310 312 315 317 317 309 296 288 284 281 279 275 271 266 264 263 262 262 260 260 261 262 264 267 269 272 275 278 280 282 284 286 288 289
262 271 280 286 291 292 292 290 288 285 284 284 287 292 297 302 305 306 307 307 306 306 307 307 307 307 307 307 306 305 304 303 303 303 304 305 307 309 310 309 308 308 308 308 308 308 309 309 309 309 310 311 312 314 317 320 323 320 302 287 280 277 273 271 267 263 260 259 259 259 259 259 260 262 263 265 268 270 272 274 277 279 281 282 284 287
275 279 286 291 293 295 294 291 288 286 286 288 292 296 300 304 305 307 306 306 305 305 305 305 305 305 305 304 303 302 301 300 300 300 301 302 304 306 307 307 307 307 307 307 307 308 308 309 309 310 311 312 313 314 316 319 323 323 311 290 277 270 267 266 264 261 258 256 256 256 257 257 258 259 260 262 264 265 266 268 271 274 276 278 280 283
297 299 301 300 299 298 296 293 291 291 292 295 299 302 304 305 306 306 306 305 305 304 303 303 303 303 303 302 302 300 299 299 299 299 299 301 302 304 305 306 305 305 305 306 307 308 309 308 309 309 310 311 312 312 314 317 320 321 316 291 259 250 257 259 259 258 256 254 252 252 253 254 255 256 257 259 261 262 263 264 267 270 273 275 275 276
302 303 302 299 299 298 296 294 293 294 296 298 301 302 303 304 304 303 303 303 302 301 301 301 302 302 302 301 301 300 300 299 299 299 300 301 302 303 304 304 304 304 304 305 306 307 308 308 308 308 309 309 309 309 311 314 317 319 318 299 261 239 242 248 252 253 253 253 252 251 251 253 254 255 256 258 259 262 264 265 267 269 273 276 277 278
293 294 294 293 293 292 292 292 293 294 296 297 298 299 300 301 301 301 301 300 298 297 297 297 298 299 299 299 299 298 298 298 299 300 301 302 303 304 304 304 304 304 304 305 305 306 306 306 307 307 307 307 307 308 310 312 315 317 317 305 276 246 233 238 246 249 250 252 253 254 253 253 253 254 256 257 259 263 266 269 270 273 275 278 280 283
284 285 286 286 287 288 290 290 291 293 294 296 297 297 298 299 299 299 299 298 296 294 294 294 294 295 295 294 293 293 294 296 298 300 301 303 303 303 303 303 302 302 303 303 303 303 302 303 304 305 305 305 306 308 310 311 313 316 316 307 287 262 240 235 239 245 249 252 255 257 257 257 257 257 258 259 262 265 268 271 273 276 278 281 283 285
283 282 283 283 285 286 288 289 291 292 293 294 295 296 296 297 297 297 296 296 294 293 292 292 292 292 290 289 289 289 290 292 295 298 300 301 301 301 300 300 299 299 300 300 299 299 299 299 301 302 302 303 305 307 309 309 311 312 311 304 292 275 257 246 244 248 252 254 256 258 260 261 262 262 262 263 265 267 269 271 274 276 279 281 284 285
285 284 284 284 285 287 289 290 291 291 292 292 293 294 294 295 295 295 295 295 294 293 292 292 292 291 290 289 288 288 289 291 294 296 298 298 298 298 298 298 297 297 297 296 295 296 297 298 299 299 300 301 303 305 307 308 308 307 304 299 291 281 270 261 259 260 261 258 255 257 261 264 266 266 267 267 268 269 271 273 276 278 280 282 284 286
291 291 290 290 290 292 293 293 293 293 294 294 294 294 295 295 296 296 295 294 293 292 292 292 292 292 291 290 289 289 290 292 294 296 296 296 296 296 297 297 296 295 295 294 294 294 295 297 299 301 301 301 301 303 306 307 306 304 301 297 291 285 278 271 268 267 267 264 262 262 265 268 271 273 275 275 274 274 276 278 281 283 285 286 288 289
300 299 298 297 297 296 296 295 296 297 298 298 298 297 297 297 297 297 296 295 293 292 293 293 293 292 291 291 290 289 290 292 293 295 296 297 297 297 297 296 296 295 294 295 295 297 299 300 303 305 305 305 304 304 305 304 304 303 301 298 294 289 282 274 268 267 269 269 270 271 274 276 280 282 283 283 283 282 283 284 286 289 291 293 294 294
302 302 302 301 301 301 300 300 300 300 301 300 299 298 298 298 297 296 295 294 294 293 293 293 293 293 292 290 289 290 291 293 293 294 296 297 297 297 297 297 297 297 297 298 299 301 303 306 307 308 307 306 305 305 306 305 304 302 301 300 298 294 286 276 269 269 271 274 277 280 283 287 290 293 293 293 292 291 291 291 292 294 297 299 300 300
300 301 301 301 302 302 302 301 301 301 301 299 298 297 296 296 295 294 293 294 294 293 293 294 294 293 292 291 290 289 291 292 293 294 296 296 296 295 295 297 298 299 299 298 299 302 304 306 307 307 306 305 305 305 306 306 305 303 302 301 300 296 290 283 278 276 276 279 283 286 289 292 296 298 300 301 300 300 299 299 299 301 303 304 304 304
297 298 299 299 299 300 300 299 299 299 298 297 297 296 296 296 296 296 295 295 295 295 294 293 293 294 294 293 292 291 292 294 295 296 297 298 297 295 296 298 299 301 301 300 301 302 304 306 306 306 308 308 306 307 308 309 307 303 299 298 298 296 292 289 287 286 286 288 291 293 294 296 299 302 304 306 306 306 305 305 305 306 308 308 308 308
295 296 296 297 297 297 297 297 298 299 299 300 299 298 298 298 298 298 298 298 298 298 296 294 294 295 296 296 294 294 295 298 300 301 300 299 298 298 301 303 306 308 309 309 312 317 321 321 319 314 307 308 308 307 309 310 308 304 299 298 297 295 294 294 295 296 297 299 301 302 302 304 306 308 310 310 310 310 310 310 310 310 311 311 311 309